Wind_Speed
3 5 2 3 2 3 4 1 4 5 3 6 4 12 18 20 16 15 7 4 4 3 1 3 8 13 19 24 31 38 44 47 49 49 50 52 53 52 50 48 49 50 51 50
4 2 3 4 3 2 2 2 5 5 2 3 7 18 13 7 5 2 7 7 6 2 5 11 17 24 32 38 41 43 44 45 46 48 50 49 52 56 57 56 54 52 50 51
4 1 6 3 2 1 3 4 1 3 6 3 7 7 3 2 2 5 8 6 3 8 16 22 29 34 38 41 43 45 45 45 44 40 43 46 48 49 51 52 51 53 50 48
4 3 4 3 1 3 3 4 1 4 3 3 5 4 5 3 4 4 6 5 3 14 20 28 32 36 39 42 45 43 42 41 39 37 38 38 41 44 44 46 46 42 41 43
2 5 3 3 3 5 2 2 1 1 1 3 1 2 7 2 5 8 8 6 8 19 22 30 34 37 40 43 45 41 39 37 36 36 36 37 40 42 43 42 41 42 41 43
2 1 1 2 2 2 2 2 4 3 2 3 3 3 6 5 6 3 3 6 13 21 28 31 38 41 43 43 41 38 37 36 34 34 33 35 37 40 42 43 44 43 42 44
1 2 1 2 2 1 4 4 4 5 4 5 1 1 10 7 6 4 7 7 21 25 30 34 40 41 41 43 39 37 36 37 35 34 33 34 36 38 40 41 43 39 39 37
5 4 5 2 1 3 3 4 5 5 2 5 4 6 6 5 4 8 5 12 23 27 31 35 37 33 40 38 37 36 35 36 33 31 32 33 34 36 38 39 39 39 40 41
5 1 2 3 2 2 2 3 3 6 1 3 3 7 11 6 7 7 4 17 26 31 32 36 35 37 37 36 35 34 33 33 32 32 31 31 31 32 35 37 37 37 36 35
4 3 1 3 3 5 4 4 3 3 1 5 5 6 6 5 4 6 5 18 28 28 32 33 31 35 34 33 33 32 31 32 32 31 30 30 29 28 30 31 34 32 34 34
3 2 0 2 6 8 2 1 4 3 3 4 3 7 7 7 5 7 5 19 22 24 28 30 33 33 33 33 32 32 31 32 32 30 29 28 28 27 25 23 23 24 27 29
2 3 4 3 2 2 3 5 6 4 5 2 3 8 2 7 5 6 8 22 21 24 26 29 32 34 34 33 33 32 32 31 31 30 29 27 26 23 22 23 22 22 25 27
5 2 2 4 2 3 4 5 5 5 3 6 6 7 1 2 4 8 12 27 21 24 27 30 33 34 34 33 32 32 31 31 30 28 28 28 26 23 20 18 19 22 22 22
5 2 5 5 3 4 4 5 7 6 4 4 10 11 18 13 9 13 25 25 21 22 23 26 29 31 32 32 31 31 30 29 29 28 27 27 25 24 21 18 14 11 14 19
3 4 2 4 6 3 5 5 13 13 10 8 8 10 17 10 7 16 29 23 20 21 22 24 26 29 30 31 31 29 28 28 28 27 26 24 22 21 19 17 15 11 7 5
1 2 2 4 2 4 6 13 16 18 10 14 19 24 26 32 23 16 15 15 17 17 19 21 22 25 28 29 30 28 27 27 26 24 25 23 21 19 17 13 12 10 6 3
5 4 3 5 3 6 8 9 14 7 5 11 9 16 1 5 4 11 14 14 14 14 16 17 18 21 23 26 27 26 25 25 26 26 23 21 19 18 17 14 13 15 13 8
5 4 2 3 4 2 5 4 9 8 5 16 8 12 12 13 15 20 19 14 11 11 12 13 15 17 19 21 22 23 23 24 27 28 27 23 21 18 18 17 18 18 20 22
2 4 2 2 3 8 6 4 7 8 8 19 21 18 11 6 6 16 14 12 10 8 7 9 11 14 16 19 21 22 23 24 27 29 29 27 24 22 22 22 24 26 25 26
4 5 3 3 3 6 5 4 6 4 6 8 16 13 5 5 2 5 4 8 8 6 5 6 7 9 12 15 18 20 23 25 27 27 26 26 27 28 28 28 29 29 31 31
4 1 6 2 3 9 11 6 10 5 6 8 21 18 12 6 9 5 6 9 9 8 6 5 4 6 9 13 15 16 19 23 24 23 24 26 26 26 26 26 28 30 32 33
8 9 4 4 2 10 14 6 8 5 4 4 10 17 17 20 16 13 13 12 11 9 8 6 4 3 6 9 11 13 16 19 19 20 22 25 25 25 25 26 28 29 31 32
4 7 7 11 8 2 26 8 25 3 4 5 7 10 14 19 21 19 19 15 14 12 11 9 6 3 2 5 8 9 14 16 16 17 20 21 22 23 23 23 24 25 25 27
5 8 3 3 7 17 25 31 34 26 27 28 27 23 18 21 22 23 21 20 17 16 15 12 11 7 3 0 4 6 11 13 13 13 15 17 17 18 18 19 20 21 22 22
4 11 5 7 9 21 32 34 30 28 28 27 26 29 27 27 29 27 25 23 21 18 18 17 15 11 7 5 2 2 4 8 9 8 10 11 12 12 12 13 15 15 16 17
8 7 6 7 15 9 16 14 15 19 22 23 22 21 21 22 26 26 28 25 23 20 20 21 20 17 13 10 7 4 3 2 4 5 5 6 7 8 8 9 9 10 11 11
Wind_Direction
32 76 170 144 67 84 101 110 258 261 297 319 231 279 285 298 303 284 266 304 114 129 101 299 288 298 300 298 295 297 298 297 297 296 293 289 287 285 280 275 269 266 266 269
33 145 155 119 85 94 127 238 254 270 265 350 317 294 288 281 265 276 148 114 106 49 292 295 304 307 307 306 303 302 301 300 297 293 289 286 283 280 280 278 273 269 266 263
131 90 124 112 87 53 219 203 229 256 326 242 304 288 306 332 83 117 132 133 93 0 332 321 318 320 320 319 318 314 310 304 298 291 289 288 286 283 280 278 278 275 271 266
115 149 134 133 183 144 272 158 123 282 17 274 40 276 294 241 283 208 189 185 327 336 326 330 329 322 321 320 317 313 308 305 302 300 295 291 288 284 281 281 280 276 269 265
194 150 163 151 199 171 224 357 263 173 130 26 241 64 270 293 255 230 222 227 319 334 333 331 329 327 323 321 320 316 312 309 307 303 299 294 289 285 283 278 274 269 263 258
107 101 135 153 141 194 0 84 51 53 64 15 244 120 270 214 212 162 193 227 322 338 337 334 331 328 323 325 322 320 317 315 313 308 302 297 291 288 284 281 276 270 267 265
181 173 163 140 150 110 67 57 343 350 8 221 4 190 248 259 233 204 187 299 338 339 340 335 333 329 324 325 324 323 321 316 313 308 304 300 295 289 283 280 276 271 264 256
160 295 168 154 124 151 71 133 145 242 266 280 316 233 250 232 271 195 186 329 336 339 338 335 333 322 326 326 327 326 322 319 319 314 309 303 297 293 289 284 274 266 260 257
142 177 75 56 99 95 208 54 141 102 46 32 263 284 287 262 205 185 266 331 338 338 336 335 333 327 331 332 331 328 326 325 323 321 314 306 303 298 292 287 279 265 261 260
201 100 300 149 115 43 105 132 69 5 359 302 284 280 244 268 224 203 311 336 334 332 333 334 329 334 339 336 335 332 334 331 330 328 320 315 311 306 300 287 275 261 255 257
144 100 103 129 206 169 99 61 50 116 141 177 294 265 222 236 219 195 248 335 331 327 329 334 334 344 344 342 339 339 339 338 337 331 327 323 318 307 299 287 275 266 256 257
176 137 174 196 63 145 148 159 148 131 235 205 147 272 279 253 209 184 300 330 330 328 333 338 343 350 349 347 345 346 346 345 343 338 333 330 323 314 297 289 280 269 262 260
193 273 53 344 37 2 211 180 132 120 97 200 144 262 354 348 216 255 299 321 325 329 334 343 351 353 352 350 350 351 351 351 346 341 341 339 335 331 320 295 278 275 264 259
132 123 186 199 165 121 193 189 171 139 138 187 229 274 278 276 270 292 300 319 321 324 333 343 351 354 354 355 354 354 355 356 352 350 354 351 350 345 342 339 330 298 266 254
127 205 162 263 234 208 222 185 187 203 193 194 269 225 263 271 261 287 304 309 310 319 333 342 349 354 357 358 358 359 0 1 359 357 359 359 358 356 355 6 5 1 348 293
105 240 113 291 337 201 266 233 214 219 224 252 259 279 275 274 279 277 274 290 294 312 328 340 350 357 359 2 1 2 6 8 6 7 8 10 12 11 17 19 23 18 38 61
152 136 96 268 341 300 285 240 189 189 211 208 205 234 259 271 239 258 275 281 284 302 321 337 352 360 3 7 4 5 12 16 18 18 18 22 27 33 34 39 51 61 69 86
139 116 93 253 357 291 240 163 177 200 221 211 258 261 244 245 276 284 278 268 270 292 314 335 357 6 9 14 13 11 18 29 30 31 29 30 36 40 52 60 68 74 88 99
127 130 97 162 204 304 278 184 149 176 277 209 219 249 265 271 298 286 271 258 256 277 307 336 360 6 11 18 19 18 22 30 36 37 38 39 46 52 61 67 74 82 89 95
92 69 120 99 195 231 249 170 171 153 292 185 192 233 204 137 1 261 260 233 238 254 288 318 349 5 14 25 27 24 31 32 36 40 43 46 56 63 67 72 77 81 85 88
134 25 187 160 248 286 246 170 154 94 237 169 195 225 169 191 220 262 254 243 234 243 258 284 330 4 19 33 34 36 42 44 39 42 51 53 54 60 68 74 78 81 83 84
164 156 190 99 112 268 149 95 177 224 174 172 217 235 233 243 247 250 256 249 238 237 245 258 281 352 20 43 44 45 51 53 52 50 55 63 63 64 65 70 76 81 85 87
214 188 178 192 209 285 188 219 215 199 273 246 244 269 261 250 248 250 255 259 248 239 238 240 242 252 20 48 57 56 61 59 57 61 66 67 72 74 74 73 72 73 76 80
241 187 229 128 248 238 239 242 250 258 265 277 281 278 268 259 255 252 252 253 248 238 237 235 232 228 223 35 72 75 76 74 70 69 70 71 72 75 79 80 80 81 76 74
182 144 193 259 289 283 272 258 254 270 277 280 285 281 274 264 260 255 252 251 251 244 234 233 231 227 220 225 207 105 94 94 84 74 78 80 78 77 76 80 84 82 86 87
189 184 183 229 217 212 266 286 292 283 284 287 288 279 283 269 267 260 253 252 249 245 236 233 230 227 224 223 224 202 157 141 124 107 93 92 95 91 87 79 74 79 81 83
Height
1485 1490 1493 1497 1498 1499 1502 1506 1510 1505 1498 1497 1491 1487 1473 1468 1468 1466 1464 1463 1462 1465 1466 1468 1467 1465 1462 1460 1456 1452 1446 1442 1437 1431 1427 1423 1419 1417 1416 1417 1418 1420 1421 1422
1490 1490 1496 1498 1499 1501 1504 1508 1509 1501 1498 1500 1493 1478 1471 1466 1464 1464 1463 1462 1462 1462 1463 1463 1463 1462 1459 1454 1449 1444 1439 1433 1427 1422 1417 1413 1408 1404 1401 1400 1401 1404 1406 1410
1492 1496 1496 1498 1500 1503 1505 1507 1504 1505 1502 1499 1498 1481 1465 1464 1463 1463 1462 1462 1462 1461 1461 1459 1458 1455 1449 1443 1438 1432 1427 1421 1416 1412 1406 1401 1396 1391 1388 1387 1386 1388 1392 1395
1493 1495 1496 1499 1500 1505 1503 1503 1504 1505 1508 1513 1499 1510 1471 1464 1463 1462 1462 1461 1459 1458 1458 1455 1451 1448 1442 1435 1429 1424 1417 1410 1405 1401 1396 1392 1386 1380 1378 1376 1374 1375 1378 1381
1492 1496 1497 1497 1498 1503 1502 1503 1504 1504 1510 1513 1500 1520 1474 1466 1461 1460 1459 1459 1458 1457 1455 1450 1447 1440 1434 1427 1420 1413 1407 1401 1396 1391 1387 1381 1375 1371 1367 1366 1364 1364 1366 1369
1495 1495 1496 1496 1499 1500 1503 1502 1505 1510 1512 1540 1500 1502 1477 1465 1455 1454 1457 1457 1458 1453 1449 1445 1441 1433 1426 1419 1411 1404 1398 1391 1387 1382 1378 1372 1366 1361 1357 1354 1352 1352 1353 1354
1495 1495 1496 1497 1498 1500 1501 1509 1540 1533 1545 1522 1501 1499 1468 1452 1451 1451 1454 1455 1453 1450 1445 1440 1434 1427 1419 1411 1404 1397 1390 1382 1379 1373 1368 1363 1357 1352 1347 1344 1341 1341 1341 1343
1497 1500 1496 1496 1497 1498 1505 1512 1538 1532 1539 1528 1506 1504 1459 1447 1445 1446 1451 1453 1451 1446 1442 1437 1430 1424 1415 1406 1398 1390 1383 1375 1370 1364 1358 1353 1349 1343 1337 1334 1332 1330 1331 1331
1494 1487 1497 1496 1497 1501 1507 1520 1517 1554 1564 1555 1510 1482 1454 1443 1444 1445 1449 1450 1447 1443 1438 1432 1426 1419 1409 1400 1392 1385 1376 1369 1362 1356 1350 1345 1339 1334 1328 1324 1322 1320 1320 1321
1480 1495 1496 1499 1499 1502 1501 1510 1522 1544 1535 1543 1513 1499 1468 1443 1441 1446 1448 1446 1443 1441 1435 1429 1422 1413 1405 1396 1388 1380 1372 1364 1356 1350 1344 1337 1331 1325 1320 1315 1312 1311 1312 1314
1483 1484 1500 1499 1498 1496 1509 1518 1525 1528 1529 1546 1553 1484 1449 1441 1438 1443 1444 1443 1440 1437 1432 1425 1417 1408 1400 1392 1384 1375 1367 1359 1351 1345 1337 1330 1324 1318 1313 1308 1305 1304 1305 1307
1482 1487 1499 1489 1493 1492 1493 1499 1512 1527 1525 1535 1539 1485 1439 1439 1436 1438 1438 1438 1435 1432 1427 1420 1412 1404 1395 1388 1379 1371 1363 1355 1348 1340 1333 1325 1318 1312 1307 1302 1300 1298 1298 1300
1481 1493 1502 1490 1496 1495 1492 1493 1499 1521 1527 1524 1537 1478 1438 1437 1436 1436 1436 1433 1429 1426 1422 1415 1407 1400 1393 1385 1376 1368 1360 1352 1345 1337 1329 1322 1315 1307 1301 1296 1293 1292 1292 1293
1478 1489 1485 1469 1467 1481 1489 1487 1492 1503 1526 1518 1489 1460 1435 1434 1437 1434 1432 1429 1425 1423 1418 1413 1405 1399 1392 1384 1375 1367 1359 1352 1344 1336 1329 1321 1313 1306 1298 1292 1288 1286 1286 1288
1480 1489 1494 1488 1483 1480 1479 1480 1484 1488 1486 1482 1456 1473 1439 1435 1435 1429 1427 1424 1422 1420 1416 1411 1405 1398 1391 1383 1375 1367 1360 1352 1345 1337 1329 1321 1314 1307 1299 1293 1287 1284 1283 1284
1481 1488 1487 1488 1482 1482 1479 1470 1470 1471 1472 1474 1457 1452 1426 1425 1425 1424 1422 1421 1420 1418 1414 1410 1404 1398 1391 1383 1376 1368 1361 1354 1347 1339 1332 1325 1317 1309 1302 1296 1291 1287 1284 1284
1481 1488 1498 1486 1484 1482 1471 1448 1452 1459 1459 1453 1467 1430 1423 1423 1421 1419 1418 1417 1416 1415 1413 1408 1403 1397 1391 1384 1378 1371 1363 1356 1349 1342 1335 1328 1321 1313 1307 1302 1298 1294 1291 1290
1480 1487 1495 1495 1487 1474 1424 1433 1436 1442 1439 1440 1436 1424 1415 1416 1415 1414 1413 1411 1412 1412 1411 1408 1403 1398 1392 1386 1381 1375 1367 1359 1353 1346 1340 1333 1327 1320 1315 1311 1306 1303 1300 1297
1473 1480 1504 1490 1517 1456 1415 1433 1436 1440 1419 1415 1420 1412 1411 1412 1412 1406 1405 1407 1408 1409 1408 1406 1402 1398 1393 1388 1383 1378 1371 1363 1356 1350 1345 1340 1335 1328 1324 1319 1316 1313 1311 1308
1475 1477 1484 1518 1496 1471 1416 1420 1422 1426 1428 1402 1406 1406 1408 1411 1419 1409 1403 1404 1406 1407 1406 1405 1401 1399 1395 1390 1385 1381 1375 1368 1361 1356 1352 1348 1343 1339 1334 1330 1327 1324 1321 1319
1478 1492 1487 1516 1499 1462 1418 1418 1422 1435 1413 1396 1398 1400 1404 1408 1401 1400 1401 1402 1403 1404 1403 1403 1401 1399 1395 1391 1387 1384 1379 1373 1369 1365 1360 1356 1352 1349 1345 1343 1339 1336 1333 1331
1460 1472 1484 1503 1507 1462 1410 1420 1418 1398 1393 1393 1395 1397 1397 1397 1397 1397 1398 1398 1399 1401 1401 1401 1400 1398 1396 1392 1390 1387 1382 1378 1375 1373 1368 1363 1361 1358 1356 1354 1351 1349 1346 1344
1449 1434 1445 1443 1429 1404 1401 1393 1393 1392 1395 1392 1393 1395 1394 1394 1393 1393 1394 1394 1396 1397 1398 1399 1399 1398 1396 1393 1391 1388 1385 1382 1380 1378 1375 1372 1369 1367 1365 1363 1361 1359 1358 1355
1430 1427 1429 1427 1394 1398 1398 1395 1392 1391 1389 1389 1389 1390 1390 1389 1388 1388 1389 1390 1391 1392 1394 1395 1396 1396 1395 1393 1391 1389 1387 1385 1384 1383 1380 1378 1376 1374 1372 1370 1370 1368 1367 1367
1415 1419 1420 1414 1397 1393 1386 1384 1383 1385 1385 1383 1382 1382 1381 1382 1381 1382 1383 1384 1386 1388 1389 1391 1392 1393 1392 1392 1391 1389 1388 1386 1386 1385 1384 1383 1381 1380 1379 1378 1377 1377 1376 1376
1402 1401 1404 1391 1383 1382 1374 1376 1378 1379 1378 1378 1377 1376 1375 1374 1373 1375 1375 1378 1381 1383 1384 1385 1387 1389 1389 1389 1389 1389 1388 1387 1386 1386 1386 1385 1384 1384 1383 1383 1382 1382 1381 1381